Regional Weather Roundup
Issued by NWS Charleston, SC

Current Version | Previous Version | Graphics & Text | Print | Product List | Glossary On
Versions: 1 2 3 4 5 6 7 8 9 10 11 12 13 14 15 16 17 18 19 20 21 22 23 24 25 26 27 28 29 30 31 32 33 34 35 36 37 38 39 40 41 42 43 44 45 46 47 48 49 50
000
ASUS42 KCHS 272127
RWRCHS

REGIONAL WEATHER ROUNDUP
NATIONAL WEATHER SERVICE CHARLESTON SC
500 PM EDT THU AUG 27 2015

NOTE: "FAIR" INDICATES FEW OR NO CLOUDS BELOW 12,000 FEET WITH NO
SIGNIFICANT WEATHER AND/OR OBSTRUCTIONS TO VISIBILITY.

NOT ALL STATIONS ARE QUALITY CONTROLLED BY THE NATIONAL
WEATHER SERVICE. USE DATA WITH CAUTION...ESPECIALLY
DEWPOINT OBSERVATIONS.

SCZ027-030-031-034>040-042>050-272200-
...SOUTHEAST SOUTH CAROLINA...

CITY           SKY/WX    TMP DP  RH WIND       PRES   REMARKS
N CHARLESTON   PTSUNNY   83  73  72 NW5       29.98R
WATERFRONT PRK   N/A     84  72  67 CALM      29.95R
MOUNT PLEASANT LGT RAIN  79  73  83 SW3       29.98R
JOHNS ISLAND   FAIR      86  72  62 CALM      29.97S HX  92
PINOPOLIS        N/A     84  73  70 N7        29.90F HX  91
MONCKS CORNER  MOCLDY    84  72  65 N5        29.98S
SUMMERVILLE    FAIR      82  73  74 N3        29.98F
BEAUFORT MCAS  PTSUNNY   81  73  76 SE6       29.96F
BEAUFORT ARPT  CLOUDY    81  77  89 CALM      29.96S
HILTON HEAD IS PTSUNNY   82  79  89 CALM      29.97F HX  93
WALTERBORO     FAIR      82  72  69 NE5       29.99S
ALLENDALE      FAIR      84  70  61 E8        29.97S

...SOUTHERN MIDLANDS AND PEE DEE...

CITY           SKY/WX    TMP DP  RH WIND       PRES   REMARKS
GEORGETOWN     NOT AVBL
KINGSTREE      NOT AVBL
ORANGEBURG     FAIR      85  70  60 SE10      29.98S
BARNWELL       FAIR      88  73  62 E9        29.98S HX  96
AIKEN          FAIR      84  61  45 NE12      30.02F
MANNING        FAIR      81  68  65 N5        29.99F
COLUMBIA       FAIR      89  63  41 NE9       29.98S HX  90
SUMTER         FAIR      85  67  55 E6        29.97S
FLORENCE       FAIR      82  69  64 E12       30.01R
MYRTLE BEACH   PTSUNNY   82  72  69 NE8         N/A
N MYRTLE BEACH LGT RAIN  76  73  91 N9        29.99S FOG

$$

GAZ063-065-086>088-099>101-113>116-118-119-134>141-150-272200-
...SOUTHEAST GEORGIA...

CITY           SKY/WX    TMP DP  RH WIND       PRES   REMARKS
SAVANNAH ARPT  LGT RAIN  75  70  84 N5        29.97S
HUNTER AAF     FAIR      77  73  90 VRB3      29.94F
FORT STEWART   PTSUNNY   72  68  88 CALM      29.94F
STATESBORO     FAIR      83  74  73 SE5       29.96F
SYLVANIA       FAIR      85  76  74 E8        29.98S HX  95
CLAXTON        NOT AVBL

...CSRA...CENTRAL AND FAR SOUTHEAST GEORGIA...

CITY           SKY/WX    TMP DP  RH WIND       PRES   REMARKS
THOMSON        FAIR      87  71  58 NE5       30.03S HX  92
AUGUSTA-BUSH   FAIR      88  67  49 E7        29.97S HX  91
AUGUSTA-DANIEL FAIR      89  65  44 MISG      29.99S HX  91
SWAINSBORO     FAIR      90  70  51 E9        29.96F HX  95
VIDALIA        FAIR      86  68  54 E10       29.95S
EASTMAN        FAIR      93  69  45 NE6       29.96S HX  97
HAZLEHURST     FAIR      91  62  37 E6        29.92S HX  91
ALMA           FAIR      94  65  38 NW3       29.91S HX  96
WAYCROSS       FAIR      94  72  48 CALM      29.91R HX 101
JESUP          RAIN      79  73  83 E8G21     29.95R
BAXLEY         CLOUDY    84  70  61 E16G28    29.93R
BRUNSWICK      FAIR      88  73  62 E7        29.94R HX  96
SAINT SIMONS   FAIR      85  72  65 SE10      29.93F HX  91

$$

SCZ027-028-034-036>038-045-046-048>050-GAZ119-141-272200-
...LAKE AND SUPPLEMENTAL COASTAL OBSERVATIONS...

STATION/POSITION TIME  TEMP    WIND        PRES    WAVE   SWELL
                       AIR SEA DIR/SP/G            HT/PER HT/PER/DIR
                 (UTC) (F)     (DEG/KT/KT) (MB)    (FT/S) (FT/S/D)
UPR LAKE MARION  NOT AVBL
WINYAH BAY       2045   81      50/ 12     1014.0S
LAKE MURRAY      2000   85     120/  2/  6 1014.9F
ACE BASIN NERRS  NOT AVBL
FORT PULASKI     2100   83 86  120/  3/  5 1014.7
SAPELO ISLAND    2100   87     140/  6     1013.0F

$$

ANZ835-935-AMZ111-154-330-350-352-354-370-450-454-472-272200-
...C-MAN AND BUOY OBSERVATIONS...

STATION/POSITION TIME  TEMP    WIND        PRES    WAVE   SWELL
                       AIR SEA DIR/SP/G            HT/PER HT/PER/DIR
                 (UTC) (F)     (DEG/KT/KT) (MB)    (FT/S) (FT/S/D)
BUOY 41004       2050   82 85  320/  4/  6 1014.5S   2/10   2/10
BUOY 41008       2050   83 86  150/  8/ 12 1013.9F   4/ 5   3/100/ 5
FOLLY BEACH CMAN 2100   82     200/  5/  6 1015.2S
CAPERS NEARSHORE 2008   82     240/  2/  4 1014.2F
FRIPP NEARSHORE  2000   84     150/  6/  8 1014.7F


STATION/POSITION TIME  TEMP    WIND        PRES    WAVE   SWELL
                       AIR SEA DIR/SP/G            HT/PER HT/PER/DIR
                 (UTC) (F)     (DEG/KT/KT) (MB)    (FT/S) (FT/S/D)
5E ST. MARYS GA  2021      87                N/A     2/10   2/110/12
FRYING PAN BUOY  2050   81 82   60/  6/  6 1015.2F
BUOY 41025       2050   78 82  110/ 10/ 12 1016.0S   5/ 9   3/ 90/ 9
CAPE LOOKOUT NC  2100   79      60/ 22/ 24 1015.4R
BUOY 41002       2050   80 84  140/  6/  8 1015.1R   3/ 9   3/140/ 9
BUOY 41010       2020   76 84   60/  6/  8 1015.1F
ST AUGUSTINE FL  2100   82 87  150/  9/ 11 1014.0F


$$


USA.gov is the U.S. government's official web portal to all federal, state and local government web resources and services.